• In Hungary
  • List of Countries
  • For 7 days
  • Water Temperature
  • Satellite Maps
  • Weather Map
  • News
  • Weather Widgets
  • user-avatar
    Login

    Hourly Weather Ostrovo

    Today, 22 July, Sunday

    Time Temperature Precipitation Wind Pressure Humidity
    00:00 +18°C° 0 mm 4 mps 765 mmHg 62%
    01:00 +18°C° 0 mm 4 mps 765 mmHg 64%
    02:00 +18°C° 0 mm 4 mps 765 mmHg 66%
    03:00 +17°C° 0 mm 4 mps 765 mmHg 68%
    04:00 +19°C° 0 mm 4 mps 765 mmHg 64%
    05:00 +20°C° 0 mm 4 mps 765 mmHg 60%
    06:00 +22°C° 0 mm 4 mps 765 mmHg 56%
    07:00 +23°C° 0 mm 4 mps 764 mmHg 51%
    08:00 +26°C° 0 mm 4 mps 764 mmHg 45%
    09:00 +28°C° 0 mm 4 mps 764 mmHg 40%
    10:00 +28°C° 0 mm 4 mps 764 mmHg 38%
    11:00 +29°C° 0 mm 4 mps 764 mmHg 35%
    12:00 +30°C° 0 mm 4 mps 764 mmHg 33%
    13:00 +30°C° 0 mm 4 mps 763 mmHg 32%
    14:00 +30°C° 0 mm 4 mps 763 mmHg 32%
    15:00 +32°C° 0 mm 4 mps 763 mmHg 31%
    16:00 +30°C° 0 mm 3 mps 763 mmHg 34%
    17:00 +30°C° 0 mm 3 mps 762 mmHg 37%
    18:00 +30°C° 0 mm 2 mps 762 mmHg 39%
    19:00 +27°C° 0 mm 2 mps 762 mmHg 45%
    20:00 +25°C° 0 mm 2 mps 762 mmHg 50%
    21:00 +23°C° 0 mm 2 mps 762 mmHg 55%
    22:00 +21°C° 0 mm 2 mps 762 mmHg 57%
    23:00 +20°C° 0 mm 3 mps 762 mmHg 59%

    Tomorrow, 23 July, Monday

    Time Temperature Precipitation Wind Pressure Humidity
    00:00 +19°C° 0 mm 3 mps 763 mmHg 62%
    01:00 +19°C° 0 mm 3 mps 763 mmHg 63%
    02:00 +18°C° 0 mm 3 mps 763 mmHg 65%
    03:00 +18°C° 0 mm 3 mps 763 mmHg 66%
    04:00 +20°C° 0 mm 3 mps 763 mmHg 62%
    05:00 +21°C° 0 mm 3 mps 763 mmHg 58%
    06:00 +24°C° 0 mm 3 mps 763 mmHg 54%
    07:00 +25°C° 0 mm 4 mps 763 mmHg 49%
    08:00 +27°C° 0 mm 4 mps 762 mmHg 44%
    09:00 +29°C° 0 mm 4 mps 762 mmHg 38%
    10:00 +29°C° 0 mm 4 mps 762 mmHg 36%
    11:00 +30°C° 0 mm 4 mps 762 mmHg 34%
    12:00 +32°C° 0 mm 4 mps 762 mmHg 32%
    13:00 +32°C° 0 mm 4 mps 762 mmHg 31%
    14:00 +32°C° 0 mm 4 mps 762 mmHg 31%
    15:00 +32°C° 0 mm 4 mps 762 mmHg 30%
    16:00 +31°C° 0 mm 3 mps 761 mmHg 33%
    17:00 +30°C° 0 mm 3 mps 761 mmHg 35%
    18:00 +30°C° 0 mm 2 mps 761 mmHg 38%
    19:00 +28°C° 0 mm 3 mps 761 mmHg 43%
    20:00 +26°C° 0 mm 3 mps 762 mmHg 48%
    21:00 +22°C° 0 mm 3 mps 762 mmHg 53%
    22:00 +21°C° 0 mm 3 mps 762 mmHg 55%
    23:00 +20°C° 0 mm 3 mps 762 mmHg 57%

    Day after tomorrow, 24 July, Tuesday

    Time Temperature Precipitation Wind Pressure Humidity
    00:00 +20°C° 0 mm 3 mps 762 mmHg 60%
    01:00 +19°C° 0 mm 3 mps 763 mmHg 60%
    02:00 +18°C° 0 mm 3 mps 763 mmHg 61%
    03:00 +18°C° 0 mm 3 mps 763 mmHg 62%
    04:00 +19°C° 0 mm 3 mps 763 mmHg 59%
    05:00 +21°C° 0 mm 3 mps 763 mmHg 56%
    06:00 +22°C° 0 mm 4 mps 763 mmHg 53%
    07:00 +25°C° 0 mm 4 mps 763 mmHg 49%
    08:00 +27°C° 0 mm 4 mps 763 mmHg 44%
    09:00 +28°C° 0 mm 4 mps 763 mmHg 40%
    10:00 +29°C° 0 mm 4 mps 763 mmHg 37%
    11:00 +30°C° 0 mm 4 mps 763 mmHg 34%
    12:00 +30°C° 0 mm 4 mps 763 mmHg 31%
    13:00 +30°C° 0 mm 4 mps 763 mmHg 31%
    14:00 +32°C° 0 mm 4 mps 763 mmHg 30%
    15:00 +32°C° 0 mm 4 mps 763 mmHg 29%
    16:00 +30°C° 0 mm 3 mps 763 mmHg 33%
    17:00 +30°C° 0 mm 3 mps 763 mmHg 36%
    18:00 +30°C° 0 mm 2 mps 763 mmHg 39%
    19:00 +27°C° 0 mm 2 mps 763 mmHg 47%
    20:00 +25°C° 0 mm 2 mps 764 mmHg 54%
    21:00 +22°C° 0 mm 1 mps 764 mmHg 62%
    22:00 +21°C° 0 mm 1 mps 764 mmHg 64%
    23:00 +20°C° 0 mm 1 mps 764 mmHg 65%

    25 July, Wednesday

    Time Temperature Precipitation Wind Pressure Humidity
    00:00 +19°C° 0 mm 1 mps 764 mmHg 67%
    01:00 +18°C° 0 mm 2 mps 765 mmHg 66%
    02:00 +18°C° 0 mm 2 mps 765 mmHg 65%
    03:00 +18°C° 0 mm 2 mps 765 mmHg 64%
    04:00 +20°C° 0 mm 2 mps 765 mmHg 60%
    05:00 +21°C° 0 mm 2 mps 765 mmHg 57%
    06:00 +24°C° 0 mm 2 mps 766 mmHg 53%
    07:00 +25°C° 0 mm 2 mps 766 mmHg 49%
    08:00 +27°C° 0 mm 2 mps 766 mmHg 45%
    09:00 +29°C° 0 mm 2 mps 766 mmHg 40%
    10:00 +30°C° 0 mm 2 mps 766 mmHg 37%
    11:00 +30°C° 0 mm 2 mps 766 mmHg 34%
    12:00 +31°C° 0 mm 2 mps 766 mmHg 30%
    13:00 +32°C° 0 mm 2 mps 766 mmHg 29%
    14:00 +32°C° 0 mm 2 mps 766 mmHg 28%
    15:00 +32°C° 0 mm 1 mps 766 mmHg 27%
    16:00 +32°C° 0 mm 1 mps 765 mmHg 31%
    17:00 +31°C° 0 mm 1 mps 765 mmHg 35%
    18:00 +29°C° 0 mm 0 mps 765 mmHg 39%
    19:00 +28°C° 0 mm 1 mps 766 mmHg 43%
    20:00 +25°C° 0 mm 1 mps 766 mmHg 48%
    21:00 +23°C° 0 mm 1 mps 766 mmHg 52%
    22:00 +22°C° 0 mm 1 mps 766 mmHg 53%
    23:00 +21°C° 0 mm 1 mps 766 mmHg 55%

    26 July, Thursday

    Time Temperature Precipitation Wind Pressure Humidity
    00:00 +19°C° 0 mm 2 mps 766 mmHg 56%
    01:00 +19°C° 0 mm 2 mps 766 mmHg 57%
    02:00 +19°C° 0 mm 2 mps 766 mmHg 57%
    03:00 +19°C° 0 mm 2 mps 766 mmHg 58%
    04:00 +20°C° 0 mm 2 mps 766 mmHg 56%
    05:00 +23°C° 0 mm 2 mps 766 mmHg 54%
    06:00 +25°C° 0 mm 2 mps 766 mmHg 52%
    07:00 +26°C° 0 mm 2 mps 766 mmHg 48%
    08:00 +28°C° 0 mm 3 mps 766 mmHg 44%
    09:00 +30°C° 0 mm 3 mps 766 mmHg 40%
    10:00 +30°C° 0 mm 3 mps 766 mmHg 38%
    11:00 +31°C° 0 mm 2 mps 765 mmHg 35%
    12:00 +32°C° 0 mm 2 mps 765 mmHg 33%
    13:00 +32°C° 0 mm 2 mps 765 mmHg 36%
    14:00 +31°C° 0 mm 2 mps 765 mmHg 40%
    15:00 +31°C° 0 mm 2 mps 765 mmHg 43%
    16:00 +31°C° 0 mm 2 mps 765 mmHg 45%
    17:00 +30°C° 0 mm 1 mps 765 mmHg 46%
    18:00 +30°C° 0 mm 1 mps 765 mmHg 48%
    19:00 +28°C° 0 mm 1 mps 765 mmHg 53%
    20:00 +27°C° 0 mm 1 mps 765 mmHg 58%
    21:00 +25°C° 0 mm 1 mps 765 mmHg 64%
    22:00 +24°C° 0.6 mm 1 mps 765 mmHg 70%
    23:00 +23°C° 0.6 mm 2 mps 765 mmHg 76%

    27 July, Friday

    Time Temperature Precipitation Wind Pressure Humidity
    00:00 +21°C° 0.6 mm 3 mps 765 mmHg 82%
    01:00 +20°C° 0.4 mm 2 mps 765 mmHg 85%
    02:00 +20°C° 0.4 mm 2 mps 765 mmHg 89%
    03:00 +20°C° 0.4 mm 2 mps 766 mmHg 93%
    04:00 +20°C° 0.1 mm 3 mps 766 mmHg 91%
    05:00 +20°C° 0.1 mm 3 mps 766 mmHg 90%
    06:00 +20°C° 0.1 mm 4 mps 766 mmHg 89%
    07:00 +20°C° 0 mm 4 mps 766 mmHg 83%
    08:00 +21°C° 0 mm 5 mps 767 mmHg 77%
    09:00 +22°C° 0 mm 5 mps 767 mmHg 71%
    10:00 +22°C° 0 mm 5 mps 767 mmHg 65%
    11:00 +22°C° 0 mm 6 mps 767 mmHg 58%
    12:00 +23°C° 0 mm 6 mps 768 mmHg 52%
    13:00 +22°C° 0 mm 6 mps 768 mmHg 50%
    14:00 +22°C° 0 mm 7 mps 768 mmHg 47%
    15:00 +21°C° 0 mm 7 mps 769 mmHg 45%
    16:00 +20°C° 0 mm 7 mps 769 mmHg 47%
    17:00 +19°C° 0 mm 6 mps 770 mmHg 48%
    18:00 +17°C° 0 mm 6 mps 771 mmHg 50%
    19:00 +15°C° 0 mm 5 mps 771 mmHg 55%
    20:00 +13°C° 0 mm 5 mps 771 mmHg 61%
    21:00 +12°C° 0 mm 4 mps 772 mmHg 66%
    22:00 +11°C° 0 mm 4 mps 772 mmHg 71%
    23:00 +10°C° 0 mm 4 mps 773 mmHg 76%
    Show more